| time (UTC) | temp F | wind direction | speed knots | gust knots | rain 1hr in | rain 24hr in | rain mn in | humidity % | barometer mb |
| 20260508220218 | 63 | 242 | 5.2 | 9.6 | 0.00 | 0.00 | 0.00 | 33 | 974.8 |
| 20260508215503 | 63 | 242 | 7.0 | 13.9 | 0.00 | 0.00 | 0.00 | 33 | 975.0 |
| 20260508215218 | 63 | 241 | 7.8 | 13.9 | 0.00 | 0.00 | 0.00 | 32 | 974.9 |
| 20260508214503 | 65 | 242 | 6.1 | 11.3 | 0.00 | 0.00 | 0.00 | 32 | 975.1 |
| 20260508214003 | 64 | 243 | 5.2 | 11.3 | 0.00 | 0.00 | 0.00 | 32 | 975.2 |
| 20260508213503 | 65 | 242 | 5.2 | 13.0 | 0.00 | 0.00 | 0.00 | 32 | 975.0 |
| 20260508213003 | 64 | 243 | 6.1 | 14.8 | 0.00 | 0.00 | 0.00 | 30 | 975.2 |
| 20260508212503 | 65 | 246 | 5.2 | 14.8 | 0.00 | 0.00 | 0.00 | 30 | 975.2 |
| 20260508212003 | 64 | 246 | 5.2 | 13.0 | 0.00 | 0.00 | 0.00 | 32 | 975.0 |
| 20260508211716 | 64 | 248 | 6.1 | 14.8 | 0.00 | 0.00 | 0.00 | 30 | 975.1 |
| 20260508211217 | 64 | 243 | 6.1 | 14.8 | 0.00 | 0.00 | 0.00 | 30 | 975.0 |
| 20260508210718 | 65 | 240 | 6.1 | 10.4 | 0.00 | 0.00 | 0.00 | 29 | 975.1 |
| 20260508210004 | 65 | 246 | 4.3 | 13.0 | 0.00 | 0.00 | 0.00 | 29 | 975.3 |
| 20260508205503 | 64 | 244 | 6.1 | 15.6 | 0.00 | 0.00 | 0.00 | 32 | 975.1 |
| 20260508205003 | 65 | 238 | 7.0 | 15.6 | 0.00 | 0.00 | 0.00 | 30 | 975.3 |
| 20260508204503 | 65 | 238 | 5.2 | 12.2 | 0.00 | 0.00 | 0.00 | 29 | 975.1 |
| 20260508204003 | 65 | 242 | 5.2 | 12.2 | 0.00 | 0.00 | 0.00 | 30 | 975.4 |
| 20260508203503 | 64 | 242 | 6.1 | 12.2 | 0.00 | 0.00 | 0.00 | 31 | 975.6 |
| 20260508203003 | 64 | 242 | 7.0 | 13.9 | 0.00 | 0.00 | 0.00 | 30 | 975.5 |
| 20260508202503 | 65 | 244 | 6.1 | 13.9 | 0.00 | 0.00 | 0.00 | 29 | 975.7 |
| 20260508202003 | 64 | 243 | 6.1 | 13.0 | 0.00 | 0.00 | 0.00 | 32 | 975.6 |
| 20260508201503 | 64 | 240 | 5.2 | 13.0 | 0.00 | 0.00 | 0.00 | 31 | 975.6 |
| 20260508201003 | 64 | 243 | 5.2 | 15.6 | 0.00 | 0.00 | 0.00 | 33 | 975.8 |
| 20260508200503 | 64 | 244 | 7.8 | 15.6 | 0.00 | 0.00 | 0.00 | 31 | 975.8 |
| 20260508200003 | 64 | 242 | 7.0 | 13.9 | 0.00 | 0.00 | 0.00 | 31 | 976.0 |
| 20260508195503 | 64 | 242 | 5.2 | 16.5 | 0.00 | 0.00 | 0.00 | 32 | 976.2 |
| 20260508195217 | 63 | 243 | 5.2 | 16.5 | 0.00 | 0.00 | 0.00 | 33 | 976.4 |
| 20260508194503 | 63 | 237 | 6.1 | 14.8 | 0.00 | 0.00 | 0.00 | 32 | 976.1 |
| 20260508194003 | 63 | 234 | 7.0 | 14.8 | 0.00 | 0.00 | 0.00 | 31 | 976.5 |
| 20260508193503 | 63 | 243 | 6.1 | 12.2 | 0.00 | 0.00 | 0.00 | 32 | 976.5 |
| 20260508193003 | 63 | 241 | 6.1 | 15.6 | 0.00 | 0.00 | 0.00 | 33 | 976.5 |
| 20260508192503 | 63 | 239 | 7.0 | 15.6 | 0.00 | 0.00 | 0.00 | 31 | 976.5 |
| 20260508192003 | 63 | 240 | 6.1 | 12.2 | 0.00 | 0.00 | 0.00 | 31 | 976.8 |
| 20260508191503 | 63 | 241 | 6.1 | 11.3 | 0.00 | 0.00 | 0.00 | 32 | 976.6 |
| 20260508191003 | 63 | 241 | 7.8 | 14.8 | 0.00 | 0.00 | 0.00 | 31 | 976.8 |
| 20260508190503 | 62 | 243 | 7.8 | 14.8 | 0.00 | 0.00 | 0.00 | 31 | 976.7 |
| 20260508190217 | 63 | 243 | 7.0 | 14.8 | 0.00 | 0.00 | 0.00 | 32 | 976.7 |
| 20260508185503 | 63 | 238 | 6.1 | 15.6 | 0.00 | 0.00 | 0.00 | 32 | 976.9 |
| 20260508185003 | 62 | 241 | 6.1 | 18.2 | 0.00 | 0.00 | 0.00 | 33 | 976.9 |
| 20260508184504 | 63 | 247 | 5.2 | 18.2 | 0.00 | 0.00 | 0.00 | 31 | 977.0 |
| 20260508184003 | 62 | 236 | 6.1 | 17.4 | 0.00 | 0.00 | 0.00 | 33 | 977.0 |
| 20260508183503 | 62 | 235 | 7.8 | 17.4 | 0.00 | 0.00 | 0.00 | 31 | 977.2 |
| 20260508183003 | 62 | 236 | 6.1 | 12.2 | 0.00 | 0.00 | 0.00 | 32 | 977.2 |
| 20260508182503 | 62 | 237 | 5.2 | 14.8 | 0.00 | 0.00 | 0.00 | 32 | 977.3 |
| 20260508182003 | 61 | 243 | 6.1 | 14.8 | 0.00 | 0.00 | 0.00 | 31 | 977.2 |
| 20260508181503 | 62 | 242 | 5.2 | 16.5 | 0.00 | 0.00 | 0.00 | 32 | 977.3 |
| 20260508181003 | 62 | 243 | 5.2 | 16.5 | 0.00 | 0.00 | 0.00 | 31 | 977.2 |
| 20260508180717 | 62 | 246 | 4.3 | 11.3 | 0.00 | 0.00 | 0.00 | 33 | 977.3 |
| 20260508180003 | 62 | 248 | 4.3 | 12.2 | 0.00 | 0.00 | 0.00 | 33 | 977.6 |
| 20260508175717 | 62 | 245 | 4.3 | 12.2 | 0.00 | 0.00 | 0.00 | 31 | 977.3 |
| 20260508175218 | 61 | 237 | 5.2 | 10.4 | 0.00 | 0.00 | 0.00 | 31 | 977.5 |
| 20260508174503 | 61 | 234 | 6.1 | 13.9 | 0.00 | 0.00 | 0.00 | 31 | 977.9 |
| 20260508174003 | 60 | 234 | 7.0 | 13.9 | 0.00 | 0.00 | 0.00 | 32 | 977.8 |
| 20260508173503 | 61 | 235 | 5.2 | 13.9 | 0.00 | 0.00 | 0.00 | 30 | 978.1 |
| 20260508173003 | 60 | 240 | 4.3 | 13.9 | 0.00 | 0.00 | 0.00 | 31 | 977.9 |
| 20260508172503 | 61 | 253 | 3.5 | 7.8 | 0.00 | 0.00 | 0.00 | 33 | 978.1 |
| 20260508172003 | 61 | 251 | 3.5 | 12.2 | 0.00 | 0.00 | 0.00 | 33 | 978.3 |
| 20260508171503 | 61 | 248 | 3.5 | 12.2 | 0.00 | 0.00 | 0.00 | 34 | 978.3 |
| 20260508171003 | 61 | 246 | 3.5 | 11.3 | 0.00 | 0.00 | 0.00 | 32 | 978.5 |
| 20260508170717 | 60 | 237 | 3.5 | 11.3 | 0.00 | 0.00 | 0.00 | 33 | 978.5 |
| 20260508170218 | 60 | 235 | 4.3 | 11.3 | 0.00 | 0.00 | 0.00 | 30 | 978.4 |
| 20260508165503 | 59 | 232 | 6.1 | 13.9 | 0.00 | 0.00 | 0.00 | 31 | 978.6 |
| 20260508165004 | 59 | 236 | 6.1 | 13.9 | 0.00 | 0.00 | 0.00 | 32 | 978.7 |
| 20260508164503 | 59 | 239 | 6.1 | 12.2 | 0.00 | 0.00 | 0.00 | 32 | 978.9 |
| 20260508164003 | 59 | 237 | 4.3 | 11.3 | 0.00 | 0.00 | 0.00 | 35 | 978.9 |
| 20260508163503 | 58 | 238 | 5.2 | 12.2 | 0.00 | 0.00 | 0.00 | 35 | 978.8 |
| 20260508163003 | 57 | 235 | 5.2 | 12.2 | 0.00 | 0.00 | 0.00 | 36 | 979.1 |
| 20260508162503 | 58 | 235 | 6.1 | 12.2 | 0.00 | 0.00 | 0.00 | 35 | 978.8 |
| 20260508162003 | 58 | 242 | 5.2 | 13.0 | 0.00 | 0.00 | 0.00 | 36 | 979.0 |
| 20260508161503 | 59 | 240 | 3.5 | 13.0 | 0.00 | 0.00 | 0.00 | 33 | 978.9 |
| 20260508161003 | 59 | 221 | 2.6 | 6.1 | 0.00 | 0.00 | 0.00 | 38 | 979.1 |
| 20260508160503 | 59 | 229 | 3.5 | 7.0 | 0.00 | 0.00 | 0.00 | 36 | 979.0 |
| 20260508160003 | 58 | 238 | 4.3 | 12.2 | 0.00 | 0.00 | 0.00 | 39 | 979.2 |
| 20260508155503 | 57 | 235 | 4.3 | 12.2 | 0.00 | 0.00 | 0.00 | 36 | 979.4 |
| 20260508155217 | 58 | 233 | 4.3 | 12.2 | 0.00 | 0.00 | 0.00 | 36 | 979.4 |
| 20260508154503 | 58 | 212 | 2.6 | 5.2 | 0.00 | 0.00 | 0.00 | 42 | 979.4 |
| 20260508154217 | 58 | 211 | 2.6 | 4.3 | 0.00 | 0.00 | 0.00 | 47 | 979.3 |
| 20260508153503 | 57 | 233 | 2.6 | 6.1 | 0.00 | 0.00 | 0.00 | 45 | 979.4 |
| 20260508153003 | 57 | 292 | 1.7 | 8.7 | 0.00 | 0.00 | 0.00 | 44 | 979.5 |
| 20260508152503 | 57 | 338 | 1.7 | 8.7 | 0.00 | 0.00 | 0.00 | 41 | 979.3 |
| 20260508152003 | 56 | 256 | 2.6 | 8.7 | 0.00 | 0.00 | 0.00 | 45 | 979.6 |
| 20260508151503 | 56 | 249 | 3.5 | 8.7 | 0.00 | 0.00 | 0.00 | 42 | 979.6 |
| 20260508151003 | 56 | 251 | 2.6 | 5.2 | 0.00 | 0.00 | 0.00 | 43 | 979.6 |
| 20260508150503 | 55 | 246 | 3.5 | 8.7 | 0.00 | 0.00 | 0.00 | 45 | 979.6 |
| 20260508150003 | 55 | 236 | 2.6 | 8.7 | 0.00 | 0.00 | 0.00 | 43 | 979.4 |
| 20260508145503 | 55 | 232 | 2.6 | 11.3 | 0.00 | 0.00 | 0.00 | 44 | 979.5 |
| 20260508145003 | 55 | 226 | 2.6 | 11.3 | 0.00 | 0.00 | 0.00 | 42 | 979.8 |
| 20260508144503 | 55 | 185 | 1.7 | 4.3 | 0.00 | 0.00 | 0.00 | 47 | 979.6 |
| 20260508144003 | 54 | 24 | 1.7 | 5.2 | 0.00 | 0.00 | 0.00 | 48 | 979.7 |
| 20260508143503 | 53 | 27 | 2.6 | 6.1 | 0.00 | 0.00 | 0.00 | 50 | 979.8 |
| 20260508143217 | 53 | 31 | 2.6 | 6.1 | 0.00 | 0.00 | 0.00 | 53 | 979.8 |
| 20260508142503 | 54 | 54 | 1.7 | 6.1 | 0.00 | 0.00 | 0.00 | 51 | 979.7 |
| 20260508142217 | 53 | 53 | 1.7 | 3.5 | 0.00 | 0.00 | 0.00 | 51 | 979.7 |
| 20260508141718 | 53 | 10 | 1.7 | 6.1 | 0.00 | 0.00 | 0.00 | 51 | 980.0 |
| 20260508141003 | 55 | 309 | 1.7 | 6.1 | 0.00 | 0.00 | 0.00 | 49 | 980.0 |
| 20260508140718 | 56 | 259 | 1.7 | 3.5 | 0.00 | 0.00 | 0.00 | 50 | 979.9 |
| 20260508140003 | 54 | 171 | 0.9 | 4.3 | 0.00 | 0.00 | 0.00 | 56 | 979.9 |
| 20260508135503 | 53 | 152 | 1.7 | 4.3 | 0.00 | 0.00 | 0.00 | 61 | 980.1 |
| 20260508135003 | 53 | 204 | 1.7 | 3.5 | 0.00 | 0.00 | 0.00 | 62 | 980.0 |
| 20260508134717 | 53 | 246 | 0.9 | 3.5 | 0.00 | 0.00 | 0.00 | 60 | 980.0 |
| 20260508134216 | 52 | 19 | 0.9 | 2.6 | 0.00 | 0.00 | 0.00 | 64 | 980.2 |
| 20260508133718 | 52 | 21 | 0.9 | 3.5 | 0.00 | 0.00 | 0.00 | 62 | 980.0 |
| 20260508133217 | 51 | 19 | 1.7 | 4.3 | 0.00 | 0.00 | 0.00 | 69 | 980.3 |
| 20260508132503 | 51 | 79 | 1.7 | 4.3 | 0.00 | 0.00 | 0.00 | 66 | 980.2 |
| 20260508132003 | 51 | 209 | 0.9 | 3.5 | 0.00 | 0.00 | 0.00 | 67 | 980.0 |
| 20260508131503 | 51 | 236 | 0.9 | 2.6 | 0.00 | 0.00 | 0.00 | 68 | 980.0 |
| 20260508131003 | 49 | 93 | 0.9 | 2.6 | 0.00 | 0.00 | 0.00 | 71 | 980.1 |
| 20260508130717 | 49 | 69 | 0.9 | 2.6 | 0.00 | 0.00 | 0.00 | 73 | 980.3 |
| 20260508130003 | 49 | 219 | 0.9 | 3.5 | 0.00 | 0.00 | 0.00 | 74 | 980.3 |
| 20260508125717 | 48 | 219 | 1.7 | 3.5 | 0.00 | 0.00 | 0.00 | 76 | 980.2 |
| 20260508125003 | 47 | 207 | 0.9 | 2.6 | 0.00 | 0.00 | 0.00 | 79 | 980.1 |
| 20260508124503 | 46 | 241 | 0.9 | 2.6 | 0.00 | 0.00 | 0.00 | 81 | 980.0 |
| 20260508124218 | 46 | 15 | 0.0 | 2.6 | 0.00 | 0.00 | 0.00 | 83 | 980.0 |
| 20260508123503 | 45 | 20 | 0.0 | 1.7 | 0.00 | 0.00 | 0.00 | 83 | 980.1 |
| 20260508123218 | 45 | 93 | 0.9 | 1.7 | 0.00 | 0.00 | 0.00 | 84 | 980.2 |
| 20260508122503 | 45 | 90 | 0.0 | 1.7 | 0.00 | 0.00 | 0.00 | 86 | 979.9 |
| 20260508122003 | 44 | 44 | 0.0 | 1.7 | 0.00 | 0.00 | 0.00 | 87 | 980.0 |
| 20260508121503 | 44 | 88 | 0.0 | 1.7 | 0.00 | 0.00 | 0.00 | 88 | 979.9 |
| 20260508121003 | 44 | 58 | 0.0 | 1.7 | 0.00 | 0.00 | 0.00 | 90 | 979.9 |
| 20260508120717 | 44 | 29 | 0.0 | 1.7 | 0.00 | 0.00 | 0.00 | 91 | 979.8 |
| 20260508120218 | 43 | 37 | 0.0 | 1.7 | 0.00 | 0.00 | 0.00 | 92 | 979.6 |
| 20260508115503 | 43 | 50 | 0.0 | 0.9 | 0.00 | 0.00 | 0.00 | 92 | 979.8 |
| 20260508115003 | 42 | 46 | 0.0 | 0.9 | 0.00 | 0.00 | 0.00 | 92 | 979.7 |
| 20260508114717 | 41 | 46 | 0.0 | 0.9 | 0.00 | 0.00 | 0.00 | 93 | 979.7 |
| 20260508114003 | 40 | 0 | 0.0 | 0.0 | 0.00 | 0.00 | 0.00 | 94 | 979.8 |
| 20260508113503 | 39 | 0 | 0.0 | 0.0 | 0.00 | 0.00 | 0.00 | 93 | 979.5 |
| 20260508113004 | 39 | 0 | 0.0 | 0.0 | 0.00 | 0.00 | 0.00 | 93 | 979.5 |
| 20260508112503 | 38 | 0 | 0.0 | 0.0 | 0.00 | 0.00 | 0.00 | 93 | 979.5 |
| 20260508112003 | 38 | 234 | 0.0 | 0.9 | 0.00 | 0.00 | 0.00 | 93 | 979.3 |
| 20260508111503 | 37 | 52 | 0.0 | 0.9 | 0.00 | 0.00 | 0.00 | 94 | 979.2 |
| 20260508111218 | 37 | 40 | 0.0 | 0.9 | 0.00 | 0.00 | 0.00 | 94 | 979.5 |
| 20260508110717 | 37 | 37 | 0.0 | 0.9 | 0.00 | 0.00 | 0.00 | 94 | 979.2 |
| 20260508110217 | 36 | 257 | 0.0 | 0.9 | 0.00 | 0.00 | 0.00 | 94 | 979.2 |
| 20260508105503 | 36 | 63 | 0.0 | 1.7 | 0.00 | 0.00 | 0.00 | 94 | 979.1 |
| 20260508105003 | 36 | 67 | 0.0 | 1.7 | 0.00 | 0.00 | 0.00 | 94 | 979.1 |
| 20260508104503 | 36 | 0 | 0.0 | 0.0 | 0.00 | 0.00 | 0.00 | 94 | 979.4 |
| 20260508104003 | 36 | 255 | 0.0 | 0.9 | 0.00 | 0.00 | 0.00 | 94 | 979.2 |
| 20260508103503 | 35 | 251 | 0.0 | 0.9 | 0.00 | 0.00 | 0.00 | 94 | 979.1 |
| 20260508103003 | 35 | 248 | 0.0 | 0.9 | 0.00 | 0.00 | 0.00 | 94 | 979.0 |
| 20260508102503 | 36 | 50 | 0.0 | 0.9 | 0.00 | 0.00 | 0.00 | 94 | 979.2 |
| 20260508102003 | 36 | 50 | 0.0 | 0.9 | 0.00 | 0.00 | 0.00 | 94 | 979.1 |
| 20260508101503 | 36 | 53 | 0.0 | 0.9 | 0.00 | 0.00 | 0.00 | 94 | 978.8 |
| 20260508101217 | 36 | 0 | 0.0 | 0.0 | 0.00 | 0.00 | 0.00 | 94 | 979.2 |
| 20260508100503 | 36 | 240 | 0.0 | 0.9 | 0.00 | 0.00 | 0.00 | 94 | 979.0 |
| 20260508100003 | 36 | 240 | 0.0 | 0.9 | 0.00 | 0.00 | 0.00 | 93 | 978.8 |
| 20260508095503 | 36 | 0 | 0.0 | 0.0 | 0.00 | 0.00 | 0.00 | 93 | 979.1 |
| 20260508095003 | 36 | 0 | 0.0 | 0.0 | 0.00 | 0.00 | 0.00 | 93 | 979.0 |
| 20260508094503 | 37 | 0 | 0.0 | 0.0 | 0.00 | 0.00 | 0.00 | 93 | 979.0 |
| 20260508094003 | 37 | 0 | 0.0 | 0.0 | 0.00 | 0.00 | 0.00 | 92 | 979.1 |
| 20260508093503 | 37 | 0 | 0.0 | 0.0 | 0.00 | 0.00 | 0.00 | 92 | 979.2 |
| 20260508093003 | 37 | 272 | 0.0 | 0.9 | 0.00 | 0.00 | 0.00 | 92 | 979.0 |
| 20260508092718 | 37 | 253 | 0.0 | 0.9 | 0.00 | 0.00 | 0.00 | 92 | 978.9 |
| 20260508092003 | 37 | 234 | 0.0 | 0.9 | 0.00 | 0.00 | 0.00 | 92 | 979.2 |
| 20260508091503 | 37 | 0 | 0.0 | 0.0 | 0.00 | 0.00 | 0.00 | 91 | 979.1 |
| 20260508091003 | 38 | 0 | 0.0 | 0.0 | 0.00 | 0.00 | 0.00 | 91 | 979.2 |
| 20260508090503 | 38 | 0 | 0.0 | 0.0 | 0.00 | 0.00 | 0.00 | 91 | 979.2 |
| 20260508090003 | 38 | 0 | 0.0 | 0.0 | 0.00 | 0.00 | 0.00 | 90 | 979.3 |
| 20260508085718 | 38 | 39 | 0.0 | 0.9 | 0.00 | 0.00 | 0.00 | 91 | 979.4 |
| 20260508085003 | 38 | 39 | 0.0 | 0.9 | 0.00 | 0.00 | 0.00 | 90 | 979.2 |
| 20260508084718 | 39 | 0 | 0.0 | 0.0 | 0.00 | 0.00 | 0.00 | 90 | 979.1 |
| 20260508084003 | 39 | 21 | 0.0 | 0.9 | 0.00 | 0.00 | 0.00 | 90 | 979.1 |
| 20260508083503 | 39 | 252 | 0.0 | 0.9 | 0.00 | 0.00 | 0.00 | 90 | 979.1 |
| 20260508083003 | 39 | 312 | 0.0 | 2.6 | 0.00 | 0.00 | 0.00 | 90 | 979.3 |
| 20260508082503 | 39 | 19 | 0.0 | 3.5 | 0.00 | 0.00 | 0.00 | 90 | 979.3 |
| 20260508082003 | 40 | 28 | 0.0 | 3.5 | 0.00 | 0.00 | 0.00 | 88 | 979.3 |
| 20260508081504 | 41 | 20 | 0.0 | 2.6 | 0.00 | 0.00 | 0.00 | 86 | 979.2 |
| 20260508081218 | 41 | 286 | 0.0 | 0.9 | 0.00 | 0.00 | 0.00 | 85 | 979.4 |
| 20260508080717 | 41 | 319 | 0.0 | 0.9 | 0.00 | 0.00 | 0.00 | 85 | 979.2 |
| 20260508080003 | 41 | 297 | 0.0 | 0.9 | 0.00 | 0.00 | 0.00 | 84 | 979.1 |
| 20260508075503 | 42 | 297 | 0.0 | 0.9 | 0.00 | 0.00 | 0.00 | 84 | 979.3 |
| 20260508075003 | 42 | 26 | 0.0 | 0.9 | 0.00 | 0.00 | 0.00 | 83 | 979.3 |
| 20260508074503 | 42 | 340 | 0.0 | 1.7 | 0.00 | 0.00 | 0.00 | 81 | 979.1 |
| 20260508074003 | 43 | 351 | 0.0 | 1.7 | 0.00 | 0.00 | 0.00 | 80 | 979.5 |
| 20260508073503 | 43 | 323 | 0.9 | 1.7 | 0.00 | 0.00 | 0.00 | 79 | 979.3 |
| 20260508073003 | 43 | 192 | 0.0 | 1.7 | 0.00 | 0.00 | 0.00 | 79 | 979.5 |
| 20260508072503 | 43 | 192 | 0.0 | 1.7 | 0.00 | 0.00 | 0.00 | 80 | 979.3 |
| 20260508072003 | 43 | 248 | 0.0 | 0.9 | 0.00 | 0.00 | 0.00 | 79 | 979.6 |
| 20260508071503 | 44 | 0 | 0.0 | 0.0 | 0.00 | 0.00 | 0.00 | 78 | 979.6 |
| 20260508071003 | 44 | 129 | 0.0 | 0.9 | 0.00 | 0.00 | 0.00 | 78 | 979.7 |
| 20260508070503 | 44 | 110 | 0.0 | 0.9 | 0.00 | 0.00 | 0.00 | 77 | 979.7 |
| 20260508070003 | 44 | 251 | 0.0 | 0.9 | 0.00 | 0.00 | 0.00 | 77 | 979.5 |
| 20260508065503 | 44 | 254 | 0.0 | 1.7 | 0.00 | 0.00 | 0.00 | 76 | 979.8 |
| 20260508065003 | 44 | 339 | 0.0 | 1.7 | 0.00 | 0.00 | 0.00 | 76 | 979.6 |
| 20260508064717 | 45 | 59 | 0.0 | 1.7 | 0.00 | 0.00 | 0.00 | 75 | 979.4 |
| 20260508064003 | 45 | 326 | 0.0 | 1.7 | 0.00 | 0.00 | 0.00 | 75 | 979.5 |
| 20260508063717 | 45 | 269 | 0.0 | 1.7 | 0.00 | 0.00 | 0.00 | 74 | 979.7 |
| 20260508063218 | 45 | 262 | 0.0 | 1.7 | 0.00 | 0.00 | 0.00 | 75 | 979.5 |
| 20260508062503 | 45 | 49 | 0.9 | 2.6 | 0.00 | 0.00 | 0.00 | 74 | 979.6 |
| 20260508062003 | 45 | 38 | 0.9 | 2.6 | 0.00 | 0.00 | 0.00 | 73 | 979.6 |
| 20260508061503 | 45 | 282 | 0.0 | 1.7 | 0.00 | 0.00 | 0.00 | 72 | 979.6 |
| 20260508061003 | 45 | 279 | 0.0 | 1.7 | 0.00 | 0.00 | 0.00 | 73 | 979.5 |
| 20260508060503 | 45 | 40 | 0.0 | 0.9 | 0.00 | 0.00 | 0.00 | 73 | 979.6 |
| 20260508060003 | 45 | 258 | 0.0 | 0.9 | 0.00 | 0.00 | 0.00 | 73 | 979.6 |
| 20260508055503 | 45 | 268 | 0.0 | 0.9 | 0.00 | 0.00 | 0.00 | 72 | 979.8 |
| 20260508055218 | 45 | 275 | 0.0 | 0.9 | 0.00 | 0.00 | 0.00 | 71 | 979.7 |
| 20260508054503 | 45 | 0 | 0.0 | 0.0 | 0.00 | 0.00 | 0.00 | 71 | 979.6 |
| 20260508054003 | 45 | 274 | 0.0 | 0.9 | 0.00 | 0.00 | 0.00 | 71 | 979.8 |
| 20260508053503 | 45 | 279 | 0.0 | 0.9 | 0.00 | 0.00 | 0.00 | 71 | 979.8 |
| 20260508053003 | 45 | 263 | 0.0 | 1.7 | 0.00 | 0.00 | 0.00 | 71 | 979.7 |
| 20260508052503 | 45 | 259 | 0.0 | 1.7 | 0.00 | 0.00 | 0.00 | 71 | 979.8 |
| 20260508052003 | 45 | 279 | 0.0 | 0.9 | 0.00 | 0.00 | 0.00 | 70 | 979.7 |
| 20260508051503 | 45 | 308 | 0.0 | 1.7 | 0.00 | 0.00 | 0.00 | 70 | 979.7 |
| 20260508051003 | 45 | 304 | 0.0 | 1.7 | 0.00 | 0.00 | 0.00 | 70 | 979.7 |
| 20260508050716 | 45 | 251 | 0.0 | 2.6 | 0.00 | 0.00 | 0.00 | 70 | 979.8 |
| 20260508050003 | 45 | 222 | 0.0 | 2.6 | 0.00 | 0.00 | 0.00 | 70 | 979.6 |
| 20260508045716 | 45 | 196 | 0.0 | 1.7 | 0.00 | 0.00 | 0.00 | 70 | 979.7 |
| 20260508045003 | 45 | 240 | 0.0 | 1.7 | 0.00 | 0.00 | 0.00 | 70 | 979.8 |
| 20260508044504 | 45 | 298 | 0.0 | 1.7 | 0.00 | 0.00 | 0.00 | 70 | 979.5 |
| 20260508044003 | 46 | 305 | 0.0 | 1.7 | 0.00 | 0.00 | 0.00 | 68 | 979.5 |
| 20260508043503 | 46 | 102 | 0.0 | 0.9 | 0.00 | 0.00 | 0.00 | 69 | 979.7 |
| 20260508043003 | 46 | 3 | 0.0 | 0.9 | 0.00 | 0.00 | 0.00 | 68 | 979.6 |
| 20260508042503 | 46 | 318 | 0.0 | 0.9 | 0.00 | 0.00 | 0.00 | 66 | 979.7 |
| 20260508042003 | 46 | 325 | 0.0 | 0.9 | 0.00 | 0.00 | 0.00 | 65 | 979.9 |
| 20260508041718 | 47 | 325 | 0.0 | 0.9 | 0.00 | 0.00 | 0.00 | 65 | 979.7 |
| 20260508041003 | 47 | 262 | 0.0 | 1.7 | 0.00 | 0.00 | 0.00 | 64 | 979.8 |
| 20260508040503 | 47 | 253 | 0.0 | 1.7 | 0.00 | 0.00 | 0.00 | 64 | 979.7 |
| 20260508040004 | 47 | 308 | 0.0 | 1.7 | 0.00 | 0.00 | 0.00 | 64 | 979.4 |
| 20260508035503 | 47 | 331 | 0.0 | 1.7 | 0.00 | 0.00 | 0.00 | 64 | 979.8 |
| 20260508035003 | 48 | 342 | 0.0 | 1.7 | 0.00 | 0.00 | 0.00 | 63 | 979.7 |
| 20260508034503 | 48 | 1 | 0.0 | 1.7 | 0.00 | 0.00 | 0.00 | 61 | 979.8 |
| 20260508034003 | 48 | 263 | 0.0 | 2.6 | 0.00 | 0.00 | 0.00 | 61 | 979.7 |
| 20260508033718 | 49 | 261 | 0.9 | 2.6 | 0.00 | 0.00 | 0.00 | 61 | 979.6 |
| 20260508033003 | 49 | 244 | 0.9 | 3.5 | 0.00 | 0.00 | 0.00 | 59 | 979.7 |
| 20260508032503 | 49 | 233 | 0.0 | 3.5 | 0.00 | 0.00 | 0.00 | 57 | 979.7 |
| 20260508032003 | 49 | 199 | 0.0 | 3.5 | 0.00 | 0.00 | 0.00 | 57 | 979.7 |
| 20260508031503 | 49 | 156 | 0.0 | 2.6 | 0.00 | 0.00 | 0.00 | 56 | 979.7 |
| 20260508031003 | 49 | 271 | 0.0 | 1.7 | 0.00 | 0.00 | 0.00 | 55 | 979.7 |
| 20260508030503 | 49 | 290 | 0.0 | 1.7 | 0.00 | 0.00 | 0.00 | 54 | 979.7 |
| 20260508030003 | 49 | 161 | 0.0 | 1.7 | 0.00 | 0.00 | 0.00 | 54 | 979.8 |
| 20260508025503 | 49 | 246 | 0.0 | 1.7 | 0.00 | 0.00 | 0.00 | 54 | 979.6 |
| 20260508025003 | 49 | 197 | 0.0 | 1.7 | 0.00 | 0.00 | 0.00 | 53 | 979.8 |
| 20260508024503 | 50 | 169 | 0.0 | 1.7 | 0.00 | 0.00 | 0.00 | 52 | 979.7 |
| 20260508024003 | 50 | 262 | 0.0 | 0.9 | 0.00 | 0.00 | 0.00 | 52 | 979.7 |
| 20260508023503 | 50 | 274 | 0.0 | 1.7 | 0.00 | 0.00 | 0.00 | 51 | 979.8 |
| 20260508023003 | 50 | 275 | 0.0 | 1.7 | 0.00 | 0.00 | 0.00 | 51 | 980.0 |
| 20260508022503 | 50 | 46 | 0.0 | 1.7 | 0.00 | 0.00 | 0.00 | 51 | 979.7 |
| 20260508022003 | 50 | 209 | 0.0 | 1.7 | 0.00 | 0.00 | 0.00 | 50 | 979.7 |
| 20260508021503 | 50 | 221 | 0.9 | 1.7 | 0.00 | 0.00 | 0.00 | 50 | 979.7 |
| 20260508021218 | 50 | 227 | 0.9 | 1.7 | 0.00 | 0.00 | 0.00 | 49 | 979.6 |
| 20260508020717 | 50 | 224 | 0.0 | 1.7 | 0.00 | 0.00 | 0.00 | 48 | 979.8 |
| 20260508020003 | 51 | 219 | 1.7 | 5.2 | 0.00 | 0.00 | 0.00 | 48 | 979.8 |
| 20260508015503 | 51 | 229 | 2.6 | 7.0 | 0.00 | 0.00 | 0.00 | 47 | 979.6 |
| 20260508015004 | 51 | 234 | 2.6 | 7.8 | 0.00 | 0.00 | 0.00 | 45 | 979.8 |
| 20260508014503 | 51 | 226 | 1.7 | 7.8 | 0.00 | 0.00 | 0.00 | 44 | 979.7 |
| 20260508014003 | 51 | 224 | 1.7 | 5.2 | 0.00 | 0.00 | 0.00 | 44 | 979.6 |
| 20260508013503 | 51 | 230 | 2.6 | 5.2 | 0.00 | 0.00 | 0.00 | 43 | 979.8 |
| 20260508013003 | 51 | 236 | 1.7 | 5.2 | 0.00 | 0.00 | 0.00 | 44 | 979.5 |
| 20260508012503 | 51 | 248 | 0.9 | 3.5 | 0.00 | 0.00 | 0.00 | 44 | 979.6 |
| 20260508012003 | 51 | 250 | 0.9 | 3.5 | 0.00 | 0.00 | 0.00 | 42 | 979.3 |
| 20260508011503 | 51 | 241 | 0.9 | 2.6 | 0.00 | 0.00 | 0.00 | 43 | 979.1 |
| 20260508011003 | 51 | 239 | 0.9 | 3.5 | 0.00 | 0.00 | 0.00 | 43 | 979.2 |
| 20260508010717 | 51 | 241 | 0.9 | 4.3 | 0.00 | 0.00 | 0.00 | 43 | 979.3 |
| 20260508010003 | 51 | 321 | 0.9 | 4.3 | 0.00 | 0.00 | 0.00 | 42 | 979.3 |
| 20260508005503 | 51 | 15 | 0.0 | 1.7 | 0.00 | 0.00 | 0.00 | 42 | 979.3 |
| 20260508005003 | 51 | 321 | 0.9 | 2.6 | 0.00 | 0.00 | 0.00 | 42 | 979.2 |
| 20260508004717 | 51 | 281 | 0.9 | 2.6 | 0.00 | 0.00 | 0.00 | 42 | 979.0 |
| 20260508004003 | 52 | 244 | 0.9 | 2.6 | 0.00 | 0.00 | 0.00 | 41 | 979.3 |
| 20260508003503 | 52 | 266 | 0.9 | 2.6 | 0.00 | 0.00 | 0.00 | 40 | 979.1 |
| 20260508003003 | 52 | 283 | 0.9 | 2.6 | 0.00 | 0.00 | 0.00 | 41 | 979.0 |
| 20260508002503 | 52 | 278 | 0.9 | 3.5 | 0.00 | 0.00 | 0.00 | 40 | 979.0 |
| 20260508002003 | 52 | 270 | 0.9 | 3.5 | 0.00 | 0.00 | 0.00 | 40 | 978.8 |
| 20260508001503 | 53 | 258 | 1.7 | 3.5 | 0.00 | 0.00 | 0.00 | 40 | 978.9 |
| 20260508001003 | 53 | 255 | 1.7 | 4.3 | 0.00 | 0.00 | 0.00 | 39 | 979.1 |
| 20260508000503 | 53 | 249 | 2.6 | 4.3 | 0.00 | 0.00 | 0.00 | 39 | 979.0 |
| 20260508000003 | 53 | 245 | 3.5 | 7.0 | 0.00 | 0.00 | 0.00 | 39 | 979.0 |
| 20260507235718 | 53 | 244 | 3.5 | 7.0 | 0.00 | 0.00 | 0.00 | 39 | 979.1 |
| 20260507235217 | 53 | 240 | 2.6 | 7.0 | 0.00 | 0.00 | 0.00 | 38 | 979.1 |
| 20260507234503 | 53 | 240 | 2.6 | 8.7 | 0.00 | 0.00 | 0.00 | 39 | 978.9 |
| 20260507234003 | 53 | 247 | 3.5 | 9.6 | 0.00 | 0.00 | 0.00 | 38 | 978.9 |
| 20260507233718 | 53 | 247 | 2.6 | 9.6 | 0.00 | 0.00 | 0.00 | 38 | 979.1 |
| 20260507233217 | 53 | 244 | 3.5 | 9.6 | 0.00 | 0.00 | 0.00 | 38 | 978.9 |
| 20260507232503 | 53 | 245 | 4.3 | 12.2 | 0.00 | 0.00 | 0.00 | 38 | 979.1 |
| 20260507232217 | 53 | 243 | 4.3 | 12.2 | 0.00 | 0.00 | 0.00 | 38 | 979.0 |
| 20260507231503 | 53 | 233 | 3.5 | 11.3 | 0.00 | 0.00 | 0.00 | 39 | 979.1 |
| 20260507231003 | 53 | 236 | 3.5 | 11.3 | 0.00 | 0.00 | 0.00 | 39 | 979.1 |
| 20260507230503 | 53 | 238 | 4.3 | 9.6 | 0.00 | 0.00 | 0.00 | 37 | 979.2 |
| 20260507230003 | 53 | 241 | 4.3 | 9.6 | 0.00 | 0.00 | 0.00 | 37 | 979.2 |
| 20260507225503 | 54 | 244 | 3.5 | 9.6 | 0.00 | 0.00 | 0.00 | 38 | 979.2 |
| 20260507225217 | 54 | 238 | 2.6 | 9.6 | 0.00 | 0.00 | 0.00 | 37 | 979.1 |
| 20260507224504 | 55 | 236 | 3.5 | 12.2 | 0.00 | 0.00 | 0.00 | 36 | 979.3 |
| 20260507224004 | 54 | 236 | 4.3 | 12.2 | 0.00 | 0.00 | 0.00 | 37 | 979.4 |
| 20260507223503 | 55 | 241 | 3.5 | 9.6 | 0.00 | 0.00 | 0.00 | 36 | 979.5 |
| 20260507223217 | 56 | 252 | 2.6 | 9.6 | 0.00 | 0.00 | 0.00 | 34 | 979.4 |
| 20260507222503 | 56 | 257 | 3.5 | 7.8 | 0.00 | 0.00 | 0.00 | 36 | 979.2 |
| 20260507222003 | 55 | 247 | 3.5 | 8.7 | 0.00 | 0.00 | 0.00 | 37 | 979.4 |
| 20260507221503 | 54 | 242 | 2.6 | 8.7 | 0.00 | 0.00 | 0.00 | 37 | 979.1 |
| 20260507221217 | 54 | 245 | 2.6 | 7.8 | 0.00 | 0.00 | 0.00 | 36 | 979.4 |
| 20260507220503 | 55 | 265 | 3.5 | 7.0 | 0.00 | 0.00 | 0.00 | 37 | 979.5 |